| time (UTC) | temp F | wind direction | speed MPH | gust MPH | rain 1hr in | rain 24hr in | rain mn in | humidity % | barometer mb |
| 20260504231404 | 50 | 319 | 10.0 | 16.0 | 0.00 | 0.00 | 0.00 | 47 | 1012.5 |
| 20260504231204 | 50 | 305 | 9.0 | 16.0 | 0.00 | 0.00 | 0.00 | 47 | 1012.5 |
| 20260504231005 | 51 | 287 | 11.0 | 16.0 | 0.00 | 0.00 | 0.00 | 46 | 1012.4 |
| 20260504230804 | 51 | 291 | 10.0 | 16.0 | 0.00 | 0.00 | 0.00 | 47 | 1012.5 |
| 20260504230604 | 51 | 297 | 11.0 | 18.0 | 0.00 | 0.00 | 0.00 | 46 | 1012.6 |
| 20260504230404 | 51 | 293 | 10.0 | 18.0 | 0.00 | 0.00 | 0.00 | 46 | 1012.5 |
| 20260504230204 | 51 | 310 | 8.0 | 18.0 | 0.00 | 0.00 | 0.00 | 47 | 1012.5 |
| 20260504230004 | 51 | 311 | 11.0 | 18.0 | 0.00 | 0.00 | 0.00 | 46 | 1012.6 |
| 20260504225804 | 51 | 327 | 11.0 | 18.0 | 0.00 | 0.00 | 0.00 | 46 | 1012.5 |
| 20260504225604 | 51 | 308 | 9.0 | 20.0 | 0.00 | 0.00 | 0.00 | 47 | 1012.5 |
| 20260504225404 | 51 | 298 | 7.0 | 24.0 | 0.00 | 0.00 | 0.00 | 47 | 1012.4 |
| 20260504225204 | 51 | 313 | 8.0 | 24.0 | 0.00 | 0.00 | 0.00 | 47 | 1012.4 |
| 20260504225005 | 51 | 323 | 10.0 | 24.0 | 0.00 | 0.00 | 0.00 | 46 | 1012.4 |
| 20260504224804 | 51 | 315 | 14.0 | 24.0 | 0.00 | 0.00 | 0.00 | 46 | 1012.3 |
| 20260504224604 | 51 | 336 | 12.0 | 24.0 | 0.00 | 0.00 | 0.00 | 46 | 1012.3 |
| 20260504224405 | 51 | 324 | 9.0 | 20.0 | 0.00 | 0.00 | 0.00 | 47 | 1012.4 |
| 20260504224204 | 51 | 320 | 12.0 | 25.0 | 0.00 | 0.00 | 0.00 | 46 | 1012.4 |
| 20260504224004 | 52 | 324 | 11.0 | 25.0 | 0.00 | 0.00 | 0.00 | 46 | 1012.4 |
| 20260504223805 | 52 | 331 | 11.0 | 25.0 | 0.00 | 0.00 | 0.00 | 46 | 1012.3 |
| 20260504223604 | 52 | 336 | 12.0 | 25.0 | 0.00 | 0.00 | 0.00 | 46 | 1012.4 |
| 20260504223404 | 52 | 331 | 16.0 | 25.0 | 0.00 | 0.00 | 0.00 | 45 | 1012.4 |
| 20260504223204 | 52 | 330 | 12.0 | 20.0 | 0.00 | 0.00 | 0.00 | 46 | 1012.3 |
| 20260504223004 | 52 | 318 | 10.0 | 20.0 | 0.00 | 0.00 | 0.00 | 46 | 1012.4 |
| 20260504222804 | 52 | 316 | 12.0 | 20.0 | 0.00 | 0.00 | 0.00 | 46 | 1012.4 |
| 20260504222605 | 52 | 331 | 10.0 | 20.0 | 0.00 | 0.00 | 0.00 | 47 | 1012.3 |
| 20260504222425 | 53 | 328 | 10.0 | 20.0 | 0.00 | 0.00 | 0.00 | 47 | 1012.3 |
| 20260504222226 | 53 | 335 | 11.0 | 21.0 | 0.00 | 0.00 | 0.00 | 46 | 1012.3 |
| 20260504222025 | 53 | 338 | 10.0 | 21.0 | 0.00 | 0.00 | 0.00 | 47 | 1012.2 |
| 20260504221804 | 53 | 331 | 10.0 | 21.0 | 0.00 | 0.00 | 0.00 | 46 | 1012.2 |
| 20260504221604 | 53 | 329 | 11.0 | 21.0 | 0.00 | 0.00 | 0.00 | 46 | 1012.2 |
| 20260504221405 | 53 | 329 | 13.0 | 21.0 | 0.00 | 0.00 | 0.00 | 46 | 1012.3 |
| 20260504221204 | 53 | 324 | 12.0 | 19.0 | 0.00 | 0.00 | 0.00 | 46 | 1012.3 |
| 20260504221004 | 53 | 339 | 12.0 | 19.0 | 0.00 | 0.00 | 0.00 | 46 | 1012.2 |
| 20260504220804 | 53 | 334 | 12.0 | 19.0 | 0.00 | 0.00 | 0.00 | 46 | 1012.2 |
| 20260504220604 | 53 | 345 | 12.0 | 18.0 | 0.00 | 0.00 | 0.00 | 47 | 1012.2 |
| 20260504220404 | 53 | 326 | 8.0 | 22.0 | 0.00 | 0.00 | 0.00 | 47 | 1012.3 |
| 20260504220205 | 53 | 333 | 10.0 | 22.0 | 0.00 | 0.00 | 0.00 | 47 | 1012.3 |
| 20260504220004 | 53 | 335 | 9.0 | 22.0 | 0.00 | 0.00 | 0.00 | 48 | 1012.2 |
| 20260504215804 | 53 | 339 | 8.0 | 22.0 | 0.00 | 0.00 | 0.00 | 47 | 1012.2 |
| 20260504215605 | 53 | 346 | 13.0 | 22.0 | 0.00 | 0.00 | 0.00 | 46 | 1012.2 |
| 20260504215404 | 53 | 331 | 9.0 | 17.0 | 0.00 | 0.00 | 0.00 | 47 | 1012.2 |
| 20260504215204 | 52 | 313 | 11.0 | 17.0 | 0.00 | 0.00 | 0.00 | 47 | 1012.2 |
| 20260504215004 | 52 | 306 | 12.0 | 19.0 | 0.00 | 0.00 | 0.00 | 46 | 1012.2 |
| 20260504214804 | 52 | 318 | 10.0 | 20.0 | 0.00 | 0.00 | 0.00 | 48 | 1012.2 |
| 20260504214604 | 52 | 324 | 9.0 | 20.0 | 0.00 | 0.00 | 0.00 | 48 | 1012.4 |
| 20260504214405 | 52 | 342 | 11.0 | 21.0 | 0.00 | 0.00 | 0.00 | 46 | 1012.4 |
| 20260504214204 | 52 | 334 | 10.0 | 21.0 | 0.00 | 0.00 | 0.00 | 45 | 1012.4 |
| 20260504214004 | 53 | 329 | 14.0 | 21.0 | 0.00 | 0.00 | 0.00 | 45 | 1012.5 |
| 20260504213804 | 53 | 329 | 12.0 | 21.0 | 0.00 | 0.00 | 0.00 | 45 | 1012.5 |
| 20260504213604 | 53 | 329 | 13.0 | 21.0 | 0.00 | 0.00 | 0.00 | 45 | 1012.5 |
| 20260504213404 | 53 | 316 | 14.0 | 21.0 | 0.00 | 0.00 | 0.00 | 46 | 1012.6 |
| 20260504213204 | 52 | 327 | 11.0 | 21.0 | 0.00 | 0.00 | 0.00 | 46 | 1012.6 |
| 20260504213025 | 52 | 328 | 13.0 | 21.0 | 0.00 | 0.00 | 0.00 | 45 | 1012.5 |
| 20260504212828 | 52 | 331 | 13.0 | 21.0 | 0.00 | 0.00 | 0.00 | 46 | 1012.6 |
| 20260504212625 | 52 | 327 | 12.0 | 21.0 | 0.00 | 0.00 | 0.00 | 46 | 1012.5 |
| 20260504212425 | 52 | 332 | 14.0 | 24.0 | 0.00 | 0.00 | 0.00 | 45 | 1012.5 |
| 20260504212225 | 52 | 346 | 11.0 | 24.0 | 0.00 | 0.00 | 0.00 | 45 | 1012.5 |
| 20260504212025 | 52 | 328 | 13.0 | 24.0 | 0.00 | 0.00 | 0.00 | 45 | 1012.5 |
| 20260504211804 | 53 | 341 | 13.0 | 24.0 | 0.00 | 0.00 | 0.00 | 44 | 1012.5 |
| 20260504211604 | 53 | 343 | 12.0 | 24.0 | 0.00 | 0.00 | 0.00 | 44 | 1012.4 |
| 20260504211404 | 53 | 338 | 13.0 | 27.0 | 0.00 | 0.00 | 0.00 | 44 | 1012.5 |
| 20260504211204 | 53 | 336 | 14.0 | 27.0 | 0.00 | 0.00 | 0.00 | 42 | 1012.5 |
| 20260504211004 | 53 | 324 | 11.0 | 27.0 | 0.00 | 0.00 | 0.00 | 43 | 1012.6 |
| 20260504210804 | 53 | 307 | 14.0 | 27.0 | 0.00 | 0.00 | 0.00 | 43 | 1012.6 |
| 20260504210604 | 53 | 336 | 14.0 | 27.0 | 0.00 | 0.00 | 0.00 | 43 | 1012.6 |
| 20260504210405 | 53 | 323 | 12.0 | 24.0 | 0.00 | 0.00 | 0.00 | 43 | 1012.6 |
| 20260504210204 | 53 | 336 | 14.0 | 24.0 | 0.00 | 0.00 | 0.00 | 43 | 1012.7 |
| 20260504210005 | 53 | 320 | 15.0 | 24.0 | 0.00 | 0.00 | 0.00 | 43 | 1012.6 |
| 20260504205805 | 53 | 314 | 14.0 | 22.0 | 0.00 | 0.00 | 0.00 | 43 | 1012.6 |
| 20260504205605 | 54 | 332 | 13.0 | 25.0 | 0.00 | 0.00 | 0.00 | 43 | 1012.7 |
| 20260504205404 | 53 | 310 | 14.0 | 26.0 | 0.00 | 0.00 | 0.00 | 43 | 1012.7 |
| 20260504205204 | 53 | 337 | 11.0 | 27.0 | 0.00 | 0.00 | 0.00 | 44 | 1012.7 |
| 20260504205004 | 53 | 329 | 13.0 | 27.0 | 0.00 | 0.00 | 0.00 | 44 | 1012.7 |
| 20260504204825 | 53 | 324 | 15.0 | 27.0 | 0.00 | 0.00 | 0.00 | 44 | 1012.8 |
| 20260504204625 | 54 | 307 | 15.0 | 27.0 | 0.00 | 0.01 | 0.00 | 44 | 1012.7 |
| 20260504204425 | 54 | 331 | 17.0 | 27.0 | 0.00 | 0.01 | 0.00 | 43 | 1012.7 |
| 20260504204204 | 54 | 333 | 13.0 | 26.0 | 0.00 | 0.01 | 0.00 | 45 | 1012.8 |
| 20260504204004 | 54 | 341 | 13.0 | 26.0 | 0.00 | 0.02 | 0.00 | 45 | 1012.8 |
| 20260504203804 | 54 | 340 | 13.0 | 26.0 | 0.00 | 0.03 | 0.00 | 44 | 1012.8 |
| 20260504203604 | 54 | 347 | 15.0 | 26.0 | 0.00 | 0.03 | 0.00 | 43 | 1012.8 |
| 20260504203405 | 54 | 317 | 13.0 | 22.0 | 0.00 | 0.04 | 0.00 | 44 | 1012.9 |
| 20260504203204 | 54 | 311 | 9.0 | 22.0 | 0.00 | 0.05 | 0.00 | 45 | 1012.8 |
| 20260504203007 | 54 | 329 | 12.0 | 22.0 | 0.00 | 0.06 | 0.00 | 46 | 1012.8 |
| 20260504202805 | 53 | 332 | 7.0 | 22.0 | 0.00 | 0.07 | 0.00 | 47 | 1012.8 |
| 20260504202605 | 53 | 333 | 10.0 | 22.0 | 0.00 | 0.07 | 0.00 | 46 | 1012.8 |
| 20260504202425 | 53 | 338 | 11.0 | 24.0 | 0.00 | 0.07 | 0.00 | 46 | 1012.8 |
| 20260504202225 | 53 | 328 | 13.0 | 24.0 | 0.00 | 0.07 | 0.00 | 44 | 1013.0 |
| 20260504202025 | 53 | 337 | 14.0 | 24.0 | 0.00 | 0.07 | 0.00 | 45 | 1012.8 |
| 20260504201804 | 52 | 331 | 13.0 | 24.0 | 0.00 | 0.07 | 0.00 | 45 | 1012.9 |
| 20260504201604 | 52 | 321 | 14.0 | 24.0 | 0.00 | 0.07 | 0.00 | 45 | 1013.0 |
| 20260504201404 | 52 | 349 | 13.0 | 22.0 | 0.00 | 0.07 | 0.00 | 47 | 1012.7 |
| 20260504201204 | 52 | 347 | 12.0 | 22.0 | 0.00 | 0.07 | 0.00 | 47 | 1012.8 |
| 20260504201004 | 52 | 335 | 13.0 | 22.0 | 0.00 | 0.07 | 0.00 | 47 | 1012.9 |
| 20260504200804 | 52 | 340 | 12.0 | 22.0 | 0.00 | 0.07 | 0.00 | 47 | 1012.8 |
| 20260504200604 | 52 | 335 | 10.0 | 22.0 | 0.00 | 0.07 | 0.00 | 47 | 1012.8 |
| 20260504200408 | 52 | 352 | 12.0 | 22.0 | 0.00 | 0.07 | 0.00 | 46 | 1012.8 |
| 20260504200204 | 52 | 345 | 12.0 | 26.0 | 0.00 | 0.07 | 0.00 | 45 | 1012.8 |
| 20260504200004 | 52 | 333 | 14.0 | 26.0 | 0.00 | 0.07 | 0.00 | 45 | 1012.9 |
| 20260504195804 | 53 | 343 | 16.0 | 26.0 | 0.00 | 0.07 | 0.00 | 45 | 1012.8 |
| 20260504195604 | 53 | 326 | 12.0 | 26.0 | 0.00 | 0.07 | 0.00 | 46 | 1013.0 |
| 20260504195404 | 52 | 348 | 13.0 | 26.0 | 0.00 | 0.07 | 0.00 | 46 | 1012.8 |
| 20260504195204 | 52 | 338 | 9.0 | 22.0 | 0.00 | 0.07 | 0.00 | 48 | 1012.9 |
| 20260504195004 | 52 | 323 | 9.0 | 22.0 | 0.00 | 0.07 | 0.00 | 48 | 1012.9 |
| 20260504194804 | 52 | 340 | 13.0 | 22.0 | 0.00 | 0.07 | 0.00 | 47 | 1012.8 |
| 20260504194604 | 52 | 343 | 11.0 | 22.0 | 0.00 | 0.07 | 0.00 | 48 | 1012.8 |
| 20260504194404 | 52 | 324 | 9.0 | 22.0 | 0.00 | 0.07 | 0.00 | 50 | 1012.9 |
| 20260504194204 | 51 | 340 | 12.0 | 22.0 | 0.00 | 0.07 | 0.00 | 48 | 1012.8 |
| 20260504194004 | 51 | 341 | 12.0 | 22.0 | 0.00 | 0.07 | 0.00 | 47 | 1012.8 |
| 20260504193805 | 51 | 346 | 13.0 | 22.0 | 0.00 | 0.07 | 0.00 | 49 | 1012.7 |
| 20260504193604 | 51 | 332 | 8.0 | 25.0 | 0.00 | 0.07 | 0.00 | 49 | 1012.8 |
| 20260504193404 | 51 | 317 | 12.0 | 25.0 | 0.00 | 0.07 | 0.00 | 49 | 1012.8 |
| 20260504193204 | 51 | 306 | 12.0 | 25.0 | 0.00 | 0.07 | 0.00 | 48 | 1012.8 |
| 20260504193004 | 51 | 304 | 13.0 | 25.0 | 0.00 | 0.07 | 0.00 | 48 | 1012.8 |
| 20260504192804 | 51 | 311 | 13.0 | 25.0 | 0.00 | 0.07 | 0.00 | 48 | 1012.8 |
| 20260504192605 | 51 | 331 | 11.0 | 22.0 | 0.00 | 0.07 | 0.00 | 51 | 1012.9 |
| 20260504192404 | 51 | 334 | 14.0 | 22.0 | 0.00 | 0.07 | 0.00 | 50 | 1012.8 |
| 20260504192204 | 51 | 347 | 11.0 | 22.0 | 0.00 | 0.07 | 0.00 | 49 | 1012.8 |
| 20260504192004 | 51 | 337 | 13.0 | 22.0 | 0.00 | 0.07 | 0.00 | 49 | 1012.9 |
| 20260504191825 | 51 | 332 | 12.0 | 21.0 | 0.00 | 0.07 | 0.00 | 48 | 1012.9 |
| 20260504191625 | 51 | 342 | 13.0 | 20.0 | 0.00 | 0.07 | 0.00 | 47 | 1012.9 |
| 20260504191426 | 51 | 338 | 11.0 | 27.0 | 0.00 | 0.07 | 0.00 | 46 | 1013.0 |
| 20260504191204 | 51 | 323 | 9.0 | 27.0 | 0.00 | 0.07 | 0.00 | 49 | 1013.0 |
| 20260504191004 | 51 | 318 | 10.0 | 27.0 | 0.00 | 0.07 | 0.00 | 48 | 1013.1 |
| 20260504190804 | 51 | 328 | 10.0 | 27.0 | 0.00 | 0.07 | 0.00 | 47 | 1013.1 |
| 20260504190625 | 51 | 339 | 12.0 | 27.0 | 0.00 | 0.07 | 0.00 | 47 | 1013.0 |
| 20260504190425 | 51 | 340 | 14.0 | 22.0 | 0.00 | 0.07 | 0.00 | 48 | 1012.8 |
| 20260504190225 | 51 | 324 | 11.0 | 22.0 | 0.00 | 0.07 | 0.00 | 48 | 1012.9 |
| 20260504190007 | 51 | 326 | 10.0 | 22.0 | 0.00 | 0.07 | 0.00 | 49 | 1012.8 |
| 20260504185804 | 51 | 309 | 10.0 | 21.0 | 0.00 | 0.07 | 0.00 | 49 | 1012.9 |
| 20260504185605 | 51 | 299 | 14.0 | 21.0 | 0.00 | 0.07 | 0.00 | 48 | 1012.9 |
| 20260504185404 | 51 | 324 | 12.0 | 21.0 | 0.00 | 0.07 | 0.00 | 49 | 1012.8 |
| 20260504185204 | 51 | 329 | 12.0 | 21.0 | 0.00 | 0.07 | 0.00 | 49 | 1012.8 |
| 20260504185004 | 51 | 330 | 11.0 | 19.0 | 0.00 | 0.07 | 0.00 | 49 | 1012.8 |
| 20260504184804 | 51 | 327 | 10.0 | 19.0 | 0.00 | 0.07 | 0.00 | 49 | 1012.9 |
| 20260504184604 | 51 | 322 | 11.0 | 18.0 | 0.00 | 0.07 | 0.00 | 50 | 1012.8 |
| 20260504184404 | 51 | 328 | 13.0 | 25.0 | 0.00 | 0.07 | 0.00 | 50 | 1012.8 |
| 20260504184204 | 51 | 318 | 12.0 | 25.0 | 0.00 | 0.07 | 0.00 | 50 | 1012.8 |
| 20260504184005 | 51 | 317 | 11.0 | 25.0 | 0.00 | 0.07 | 0.00 | 50 | 1012.7 |
| 20260504183805 | 51 | 305 | 11.0 | 25.0 | 0.00 | 0.07 | 0.00 | 50 | 1012.7 |
| 20260504183604 | 51 | 301 | 14.0 | 25.0 | 0.00 | 0.07 | 0.00 | 49 | 1012.7 |
| 20260504183405 | 51 | 312 | 12.0 | 22.0 | 0.00 | 0.07 | 0.00 | 49 | 1012.8 |
| 20260504183204 | 51 | 311 | 15.0 | 22.0 | 0.00 | 0.07 | 0.00 | 50 | 1012.8 |
| 20260504183004 | 51 | 331 | 14.0 | 22.0 | 0.00 | 0.07 | 0.00 | 51 | 1012.7 |
| 20260504182804 | 51 | 326 | 12.0 | 21.0 | 0.00 | 0.07 | 0.00 | 52 | 1012.7 |
| 20260504182605 | 51 | 333 | 12.0 | 21.0 | 0.00 | 0.07 | 0.00 | 52 | 1012.7 |
| 20260504182404 | 51 | 348 | 12.0 | 21.0 | 0.00 | 0.07 | 0.00 | 52 | 1012.8 |
| 20260504182204 | 51 | 331 | 11.0 | 26.0 | 0.00 | 0.07 | 0.00 | 50 | 1012.8 |
| 20260504182004 | 51 | 330 | 13.0 | 26.0 | 0.00 | 0.07 | 0.00 | 51 | 1012.8 |
| 20260504181825 | 51 | 312 | 13.0 | 26.0 | 0.00 | 0.07 | 0.00 | 50 | 1012.8 |
| 20260504181625 | 52 | 313 | 14.0 | 26.0 | 0.00 | 0.07 | 0.00 | 51 | 1012.8 |
| 20260504181425 | 52 | 323 | 12.0 | 26.0 | 0.00 | 0.07 | 0.00 | 51 | 1012.8 |
| 20260504181204 | 52 | 323 | 14.0 | 25.0 | 0.00 | 0.07 | 0.00 | 50 | 1012.9 |
| 20260504181004 | 52 | 315 | 13.0 | 21.0 | 0.00 | 0.07 | 0.00 | 51 | 1012.8 |
| 20260504180804 | 52 | 322 | 9.0 | 16.0 | 0.00 | 0.07 | 0.00 | 53 | 1012.9 |
| 20260504180604 | 52 | 321 | 8.0 | 18.0 | 0.00 | 0.07 | 0.00 | 54 | 1012.9 |
| 20260504180404 | 52 | 318 | 10.0 | 21.0 | 0.00 | 0.07 | 0.00 | 52 | 1012.8 |
| 20260504180205 | 52 | 334 | 8.0 | 21.0 | 0.00 | 0.07 | 0.00 | 53 | 1012.8 |
| 20260504180004 | 52 | 323 | 10.0 | 21.0 | 0.00 | 0.07 | 0.00 | 53 | 1012.8 |
| 20260504175804 | 52 | 328 | 11.0 | 21.0 | 0.00 | 0.07 | 0.00 | 53 | 1012.8 |
| 20260504175604 | 52 | 339 | 13.0 | 22.0 | 0.00 | 0.07 | 0.00 | 52 | 1012.7 |
| 20260504175404 | 51 | 339 | 10.0 | 22.0 | 0.00 | 0.07 | 0.00 | 52 | 1012.9 |
| 20260504175204 | 51 | 347 | 11.0 | 22.0 | 0.00 | 0.07 | 0.00 | 52 | 1012.9 |
| 20260504175004 | 51 | 324 | 12.0 | 22.0 | 0.00 | 0.07 | 0.00 | 53 | 1012.9 |
| 20260504174804 | 51 | 329 | 13.0 | 22.0 | 0.00 | 0.07 | 0.00 | 53 | 1013.0 |
| 20260504174604 | 51 | 334 | 13.0 | 22.0 | 0.00 | 0.07 | 0.00 | 53 | 1012.9 |
| 20260504174404 | 51 | 340 | 12.0 | 24.0 | 0.00 | 0.07 | 0.00 | 54 | 1012.8 |
| 20260504174204 | 51 | 323 | 13.0 | 24.0 | 0.00 | 0.07 | 0.00 | 55 | 1012.8 |
| 20260504174004 | 50 | 331 | 14.0 | 24.0 | 0.00 | 0.07 | 0.00 | 54 | 1012.8 |
| 20260504173804 | 50 | 325 | 13.0 | 24.0 | 0.00 | 0.07 | 0.00 | 53 | 1012.8 |
| 20260504173604 | 51 | 324 | 16.0 | 25.0 | 0.00 | 0.07 | 0.00 | 54 | 1012.9 |
| 20260504173404 | 51 | 332 | 15.0 | 28.0 | 0.00 | 0.07 | 0.00 | 54 | 1012.8 |
| 20260504173204 | 51 | 328 | 13.0 | 29.0 | 0.00 | 0.07 | 0.00 | 54 | 1012.9 |
| 20260504173004 | 51 | 312 | 15.0 | 29.0 | 0.00 | 0.07 | 0.00 | 53 | 1013.1 |
| 20260504172804 | 51 | 320 | 14.0 | 29.0 | 0.00 | 0.07 | 0.00 | 53 | 1012.9 |
| 20260504172604 | 51 | 309 | 17.0 | 29.0 | 0.00 | 0.07 | 0.00 | 53 | 1012.9 |
| 20260504172404 | 51 | 318 | 15.0 | 29.0 | 0.00 | 0.07 | 0.00 | 53 | 1012.8 |
| 20260504172204 | 51 | 329 | 14.0 | 28.0 | 0.00 | 0.07 | 0.00 | 53 | 1012.7 |
| 20260504172005 | 52 | 314 | 15.0 | 28.0 | 0.00 | 0.07 | 0.00 | 53 | 1012.8 |
| 20260504171804 | 52 | 309 | 15.0 | 25.0 | 0.00 | 0.07 | 0.00 | 52 | 1012.8 |
| 20260504171604 | 52 | 324 | 15.0 | 25.0 | 0.00 | 0.07 | 0.00 | 53 | 1012.7 |
| 20260504171405 | 52 | 333 | 13.0 | 21.0 | 0.00 | 0.07 | 0.00 | 52 | 1012.6 |
| 20260504171204 | 52 | 336 | 12.0 | 21.0 | 0.00 | 0.07 | 0.00 | 53 | 1012.5 |
| 20260504171004 | 53 | 324 | 13.0 | 26.0 | 0.00 | 0.07 | 0.00 | 52 | 1012.4 |
| 20260504170804 | 53 | 312 | 14.0 | 26.0 | 0.00 | 0.07 | 0.00 | 53 | 1012.5 |
| 20260504170604 | 53 | 325 | 10.0 | 26.0 | 0.00 | 0.07 | 0.00 | 53 | 1012.5 |
| 20260504170404 | 52 | 332 | 12.0 | 26.0 | 0.00 | 0.07 | 0.00 | 53 | 1012.6 |
| 20260504170204 | 52 | 346 | 9.0 | 26.0 | 0.00 | 0.07 | 0.00 | 54 | 1012.6 |
| 20260504160425 | 51 | 319 | 15.0 | 24.0 | 0.00 | 0.07 | 0.00 | 54 | 1012.2 |
| 20260504160225 | 51 | 336 | 14.0 | 21.0 | 0.00 | 0.07 | 0.00 | 54 | 1012.1 |
| 20260504151005 | 51 | 325 | 13.0 | 25.0 | 0.00 | 0.07 | 0.00 | 54 | 1012.3 |
| 20260504150804 | 51 | 328 | 14.0 | 25.0 | 0.00 | 0.07 | 0.00 | 54 | 1012.2 |
| 20260504150603 | 51 | 324 | 14.0 | 21.0 | 0.00 | 0.07 | 0.00 | 53 | 1012.3 |
| 20260504150404 | 51 | 331 | 12.0 | 21.0 | 0.00 | 0.07 | 0.00 | 54 | 1012.3 |
| 20260504150204 | 51 | 334 | 11.0 | 21.0 | 0.00 | 0.07 | 0.00 | 54 | 1012.3 |
| 20260504141204 | 49 | 339 | 7.0 | 17.0 | 0.00 | 0.07 | 0.00 | 61 | 1012.4 |
| 20260504141004 | 49 | 332 | 8.0 | 17.0 | 0.00 | 0.07 | 0.00 | 62 | 1012.4 |
| 20260504140804 | 49 | 340 | 8.0 | 17.0 | 0.00 | 0.07 | 0.00 | 62 | 1012.3 |
| 20260504140603 | 49 | 329 | 10.0 | 20.0 | 0.00 | 0.07 | 0.00 | 62 | 1012.3 |
| 20260504140404 | 49 | 329 | 10.0 | 20.0 | 0.00 | 0.07 | 0.00 | 63 | 1012.4 |
| 20260504140204 | 49 | 335 | 10.0 | 20.0 | 0.00 | 0.07 | 0.00 | 63 | 1012.2 |
| 20260504130804 | 47 | 311 | 2.0 | 4.0 | 0.00 | 0.07 | 0.00 | 64 | 1011.6 |
| 20260504130604 | 47 | 314 | 1.0 | 7.0 | 0.00 | 0.07 | 0.00 | 65 | 1011.5 |
| 20260504130404 | 47 | 302 | 2.0 | 7.0 | 0.00 | 0.07 | 0.00 | 64 | 1011.5 |
| 20260504130205 | 47 | 292 | 3.0 | 7.0 | 0.00 | 0.07 | 0.00 | 64 | 1011.4 |
| 20260504120225 | 48 | 319 | 3.0 | 5.0 | 0.00 | 0.07 | 0.00 | 60 | 1010.6 |
| 20260504110604 | 52 | 323 | 9.0 | 19.0 | 0.00 | 0.07 | 0.00 | 55 | 1008.8 |
| 20260504110404 | 52 | 328 | 8.0 | 19.0 | 0.00 | 0.07 | 0.00 | 54 | 1008.7 |
| 20260504110204 | 52 | 341 | 14.0 | 19.0 | 0.00 | 0.07 | 0.00 | 54 | 1008.7 |
| 20260504100603 | 53 | 309 | 1.0 | 4.0 | 0.00 | 0.07 | 0.00 | 50 | 1007.3 |
| 20260504100404 | 53 | 326 | 2.0 | 5.0 | 0.00 | 0.07 | 0.00 | 50 | 1007.3 |
| 20260504100204 | 54 | 10 | 3.0 | 7.0 | 0.00 | 0.07 | 0.00 | 49 | 1007.3 |
| 20260504082004 | 58 | 242 | 12.0 | 21.0 | 0.00 | 0.07 | 0.00 | 42 | 1006.8 |
| 20260504081804 | 58 | 242 | 12.0 | 19.0 | 0.00 | 0.07 | 0.00 | 42 | 1006.9 |
| 20260504081604 | 58 | 243 | 13.0 | 19.0 | 0.00 | 0.07 | 0.00 | 43 | 1006.9 |
| 20260504081403 | 58 | 245 | 13.0 | 19.0 | 0.00 | 0.07 | 0.00 | 43 | 1006.9 |
| 20260504081204 | 58 | 241 | 11.0 | 19.0 | 0.00 | 0.07 | 0.00 | 43 | 1006.9 |
| 20260504081003 | 58 | 253 | 12.0 | 19.0 | 0.00 | 0.07 | 0.00 | 43 | 1006.9 |
| 20260504080804 | 58 | 254 | 11.0 | 20.0 | 0.00 | 0.07 | 0.00 | 43 | 1006.9 |
| 20260504080604 | 58 | 257 | 10.0 | 21.0 | 0.00 | 0.07 | 0.00 | 43 | 1006.9 |
| 20260504080404 | 58 | 257 | 10.0 | 21.0 | 0.00 | 0.07 | 0.00 | 43 | 1006.9 |
| 20260504080204 | 58 | 253 | 10.0 | 21.0 | 0.00 | 0.07 | 0.00 | 43 | 1006.9 |
| 20260504070404 | 59 | 240 | 12.0 | 22.0 | 0.00 | 0.07 | 0.00 | 45 | 1007.3 |
| 20260504070204 | 59 | 238 | 16.0 | 25.0 | 0.00 | 0.07 | 0.00 | 44 | 1007.2 |
| 20260504060203 | 58 | 248 | 8.0 | 13.0 | 0.00 | 0.07 | 0.00 | 49 | 1007.7 |
| 20260504050604 | 58 | 248 | 10.0 | 17.0 | 0.00 | 0.07 | 0.07 | 49 | 1008.4 |
| 20260504050404 | 58 | 247 | 11.0 | 16.0 | 0.00 | 0.07 | 0.07 | 49 | 1008.5 |
| 20260504050204 | 58 | 247 | 11.0 | 19.0 | 0.00 | 0.07 | 0.07 | 50 | 1008.5 |
| 20260504050007 | 58 | 254 | 10.0 | 19.0 | 0.00 | 0.07 | 0.07 | 50 | 1008.5 |
| 20260504045804 | 58 | 249 | 10.0 | 19.0 | 0.00 | 0.07 | 0.07 | 50 | 1008.5 |
| 20260504045604 | 58 | 252 | 11.0 | 19.0 | 0.00 | 0.07 | 0.07 | 49 | 1008.5 |
| 20260504045425 | 58 | 248 | 12.0 | 19.0 | 0.00 | 0.07 | 0.07 | 50 | 1008.5 |
| 20260504045225 | 58 | 245 | 11.0 | 19.0 | 0.00 | 0.07 | 0.07 | 50 | 1008.5 |
| 20260504045025 | 58 | 241 | 11.0 | 20.0 | 0.00 | 0.07 | 0.07 | 50 | 1008.5 |
| 20260504044804 | 58 | 239 | 13.0 | 20.0 | 0.00 | 0.07 | 0.07 | 50 | 1008.4 |
| 20260504044604 | 58 | 247 | 11.0 | 20.0 | 0.00 | 0.07 | 0.07 | 50 | 1008.5 |
| 20260504044404 | 58 | 257 | 12.0 | 20.0 | 0.00 | 0.07 | 0.07 | 50 | 1008.5 |
| 20260504044204 | 58 | 242 | 13.0 | 20.0 | 0.00 | 0.07 | 0.07 | 50 | 1008.5 |
| 20260504044004 | 58 | 244 | 11.0 | 17.0 | 0.00 | 0.07 | 0.07 | 50 | 1008.5 |
| 20260504043804 | 58 | 245 | 11.0 | 17.0 | 0.00 | 0.07 | 0.07 | 50 | 1008.5 |
| 20260504043603 | 58 | 250 | 10.0 | 19.0 | 0.00 | 0.07 | 0.07 | 50 | 1008.6 |
| 20260504043403 | 58 | 249 | 8.0 | 19.0 | 0.00 | 0.07 | 0.07 | 50 | 1008.6 |
| 20260504043204 | 58 | 255 | 10.0 | 19.0 | 0.00 | 0.07 | 0.07 | 50 | 1008.5 |
| 20260504043004 | 58 | 262 | 11.0 | 19.0 | 0.00 | 0.07 | 0.07 | 50 | 1008.6 |
| 20260504042804 | 58 | 249 | 11.0 | 19.0 | 0.00 | 0.07 | 0.07 | 50 | 1008.5 |
| 20260504042604 | 58 | 250 | 11.0 | 18.0 | 0.00 | 0.07 | 0.07 | 50 | 1008.5 |
| 20260504042425 | 59 | 259 | 10.0 | 18.0 | 0.00 | 0.07 | 0.07 | 50 | 1008.5 |
| 20260504042224 | 59 | 255 | 10.0 | 18.0 | 0.00 | 0.07 | 0.07 | 50 | 1008.5 |
| 20260504042024 | 59 | 249 | 12.0 | 18.0 | 0.00 | 0.07 | 0.07 | 50 | 1008.4 |
| 20260504041804 | 59 | 241 | 12.0 | 18.0 | 0.00 | 0.07 | 0.07 | 49 | 1008.5 |
| 20260504041604 | 59 | 260 | 10.0 | 18.0 | 0.00 | 0.07 | 0.07 | 49 | 1008.5 |
| 20260504041404 | 59 | 254 | 10.0 | 19.0 | 0.00 | 0.07 | 0.07 | 49 | 1008.5 |
| 20260504041204 | 59 | 253 | 10.0 | 20.0 | 0.00 | 0.07 | 0.07 | 49 | 1008.5 |
| 20260504041003 | 59 | 258 | 10.0 | 20.0 | 0.00 | 0.07 | 0.07 | 49 | 1008.4 |
| 20260504040804 | 60 | 258 | 11.0 | 21.0 | 0.00 | 0.07 | 0.07 | 49 | 1008.4 |
| 20260504040604 | 60 | 250 | 11.0 | 21.0 | 0.00 | 0.07 | 0.07 | 48 | 1008.5 |
| 20260504040404 | 60 | 245 | 12.0 | 21.0 | 0.00 | 0.07 | 0.07 | 48 | 1008.4 |
| 20260504040204 | 60 | 250 | 14.0 | 21.0 | 0.00 | 0.07 | 0.07 | 48 | 1008.4 |
| 20260504040004 | 60 | 242 | 14.0 | 21.0 | 0.00 | 0.07 | 0.07 | 48 | 1008.5 |
| 20260504035803 | 60 | 243 | 13.0 | 21.0 | 0.00 | 0.07 | 0.07 | 49 | 1008.4 |
| 20260504035604 | 60 | 248 | 12.0 | 21.0 | 0.00 | 0.07 | 0.07 | 49 | 1008.4 |
| 20260504035425 | 60 | 240 | 12.0 | 21.0 | 0.00 | 0.07 | 0.07 | 49 | 1008.5 |
| 20260504035225 | 60 | 244 | 11.0 | 21.0 | 0.00 | 0.07 | 0.07 | 49 | 1008.5 |
| 20260504035025 | 59 | 246 | 11.0 | 16.0 | 0.00 | 0.07 | 0.07 | 49 | 1008.5 |
| 20260504034825 | 59 | 237 | 12.0 | 16.0 | 0.00 | 0.07 | 0.07 | 49 | 1008.5 |
| 20260504034625 | 59 | 241 | 10.0 | 15.0 | 0.00 | 0.07 | 0.07 | 50 | 1008.5 |
| 20260504034425 | 58 | 249 | 8.0 | 15.0 | 0.00 | 0.07 | 0.07 | 51 | 1008.5 |
| 20260504034203 | 58 | 248 | 9.0 | 14.0 | 0.00 | 0.07 | 0.07 | 52 | 1008.6 |
| 20260504034004 | 58 | 241 | 8.0 | 14.0 | 0.00 | 0.07 | 0.07 | 53 | 1008.6 |
| 20260504033804 | 58 | 262 | 7.0 | 13.0 | 0.00 | 0.07 | 0.07 | 53 | 1008.6 |
| 20260504033604 | 58 | 260 | 7.0 | 15.0 | 0.00 | 0.07 | 0.07 | 53 | 1008.6 |
| 20260504033405 | 58 | 262 | 5.0 | 15.0 | 0.00 | 0.07 | 0.07 | 54 | 1008.5 |
| 20260504033204 | 58 | 259 | 8.0 | 15.0 | 0.00 | 0.07 | 0.07 | 54 | 1008.6 |
| 20260504033025 | 58 | 253 | 8.0 | 15.0 | 0.00 | 0.07 | 0.07 | 53 | 1008.6 |
| 20260504032825 | 58 | 257 | 8.0 | 15.0 | 0.00 | 0.07 | 0.07 | 53 | 1008.7 |
| 20260504032625 | 58 | 261 | 8.0 | 15.0 | 0.00 | 0.07 | 0.07 | 54 | 1008.6 |
| 20260504032403 | 58 | 249 | 9.0 | 15.0 | 0.00 | 0.07 | 0.07 | 54 | 1008.6 |
| 20260504032203 | 58 | 241 | 8.0 | 15.0 | 0.00 | 0.07 | 0.07 | 55 | 1008.6 |
| 20260504032004 | 57 | 249 | 8.0 | 15.0 | 0.00 | 0.07 | 0.07 | 55 | 1008.5 |
| 20260504031804 | 57 | 245 | 10.0 | 15.0 | 0.00 | 0.07 | 0.07 | 57 | 1008.6 |
| 20260504031604 | 57 | 246 | 10.0 | 14.0 | 0.00 | 0.07 | 0.07 | 57 | 1008.6 |
| 20260504031404 | 56 | 244 | 9.0 | 13.0 | 0.00 | 0.07 | 0.07 | 58 | 1008.6 |
| 20260504031224 | 56 | 241 | 8.0 | 13.0 | 0.00 | 0.07 | 0.07 | 60 | 1008.6 |
| 20260504031025 | 56 | 246 | 8.0 | 13.0 | 0.00 | 0.07 | 0.07 | 61 | 1008.6 |
| 20260504030825 | 55 | 252 | 8.0 | 11.0 | 0.00 | 0.07 | 0.07 | 61 | 1008.6 |
| 20260504030603 | 54 | 252 | 7.0 | 11.0 | 0.00 | 0.07 | 0.07 | 64 | 1008.6 |
| 20260504030404 | 53 | 246 | 6.0 | 11.0 | 0.00 | 0.07 | 0.07 | 65 | 1008.5 |
| 20260504030203 | 53 | 241 | 5.0 | 10.0 | 0.00 | 0.07 | 0.07 | 67 | 1008.5 |
| 20260504030004 | 52 | 251 | 2.0 | 4.0 | 0.00 | 0.07 | 0.07 | 71 | 1008.5 |
| 20260504025803 | 52 | 220 | 2.0 | 3.0 | 0.00 | 0.07 | 0.07 | 70 | 1008.6 |
| 20260504025607 | 52 | 215 | 2.0 | 3.0 | 0.00 | 0.07 | 0.07 | 70 | 1008.6 |
| 20260504025403 | 53 | 216 | 2.0 | 3.0 | 0.00 | 0.07 | 0.07 | 70 | 1008.5 |
| 20260504025203 | 53 | 216 | 1.0 | 3.0 | 0.00 | 0.07 | 0.07 | 69 | 1008.5 |
| 20260504025004 | 53 | 216 | 0.0 | 2.0 | 0.00 | 0.07 | 0.07 | 68 | 1008.5 |
| 20260504024804 | 53 | 216 | 0.0 | 2.0 | 0.00 | 0.07 | 0.07 | 67 | 1008.5 |
| 20260504024604 | 53 | 0 | 0.0 | 2.0 | 0.00 | 0.07 | 0.07 | 67 | 1008.5 |
| 20260504024404 | 53 | 216 | 0.0 | 3.0 | 0.00 | 0.07 | 0.07 | 67 | 1008.5 |
| 20260504024204 | 54 | 216 | 1.0 | 3.0 | 0.00 | 0.07 | 0.07 | 66 | 1008.4 |
| 20260504024004 | 54 | 216 | 1.0 | 3.0 | 0.00 | 0.07 | 0.07 | 66 | 1008.4 |
| 20260504023804 | 54 | 216 | 1.0 | 4.0 | 0.00 | 0.07 | 0.07 | 65 | 1008.4 |
| 20260504023604 | 54 | 216 | 2.0 | 4.0 | 0.00 | 0.07 | 0.07 | 64 | 1008.4 |
| 20260504023403 | 55 | 213 | 2.0 | 4.0 | 0.00 | 0.07 | 0.07 | 64 | 1008.4 |
| 20260504023204 | 55 | 207 | 2.0 | 4.0 | 0.00 | 0.07 | 0.07 | 64 | 1008.4 |
| 20260504023004 | 55 | 248 | 3.0 | 4.0 | 0.00 | 0.07 | 0.07 | 64 | 1008.4 |
| 20260504022804 | 55 | 281 | 1.0 | 3.0 | 0.00 | 0.07 | 0.07 | 66 | 1008.4 |
| 20260504022603 | 55 | 284 | 0.0 | 4.0 | 0.00 | 0.07 | 0.07 | 66 | 1008.4 |
| 20260504022404 | 55 | 284 | 0.0 | 5.0 | 0.00 | 0.07 | 0.07 | 66 | 1008.4 |
| 20260504022204 | 55 | 284 | 1.0 | 5.0 | 0.00 | 0.07 | 0.07 | 66 | 1008.4 |
| 20260504022003 | 55 | 282 | 2.0 | 5.0 | 0.00 | 0.07 | 0.07 | 66 | 1008.3 |
| 20260504021807 | 55 | 289 | 2.0 | 5.0 | 0.00 | 0.07 | 0.07 | 66 | 1008.3 |
| 20260504021603 | 55 | 331 | 3.0 | 5.0 | 0.00 | 0.07 | 0.07 | 67 | 1008.3 |
| 20260504021403 | 55 | 319 | 2.0 | 4.0 | 0.00 | 0.07 | 0.07 | 67 | 1008.2 |
| 20260504021204 | 55 | 237 | 2.0 | 4.0 | 0.00 | 0.07 | 0.07 | 67 | 1008.3 |
| 20260504021004 | 55 | 239 | 1.0 | 3.0 | 0.00 | 0.07 | 0.07 | 69 | 1008.2 |
| 20260504020804 | 55 | 252 | 1.0 | 2.0 | 0.00 | 0.07 | 0.07 | 69 | 1008.3 |
| 20260504020624 | 55 | 252 | 1.0 | 2.0 | 0.00 | 0.07 | 0.07 | 69 | 1008.3 |
| 20260504020425 | 55 | 252 | 0.0 | 2.0 | 0.00 | 0.07 | 0.07 | 69 | 1008.3 |
| 20260504020225 | 56 | 251 | 0.0 | 3.0 | 0.00 | 0.07 | 0.07 | 69 | 1008.4 |
| 20260504020025 | 56 | 252 | 0.0 | 4.0 | 0.00 | 0.07 | 0.07 | 68 | 1008.4 |
| 20260504015825 | 56 | 250 | 1.0 | 4.0 | 0.00 | 0.07 | 0.07 | 68 | 1008.4 |
| 20260504015624 | 56 | 228 | 2.0 | 4.0 | 0.00 | 0.07 | 0.07 | 68 | 1008.4 |
| 20260504015408 | 56 | 226 | 2.0 | 4.0 | 0.00 | 0.07 | 0.07 | 67 | 1008.4 |
| 20260504015205 | 56 | 220 | 3.0 | 4.0 | 0.00 | 0.07 | 0.07 | 67 | 1008.4 |
| 20260504015004 | 57 | 220 | 2.0 | 4.0 | 0.00 | 0.07 | 0.07 | 67 | 1008.5 |
| 20260504014803 | 57 | 234 | 2.0 | 4.0 | 0.00 | 0.07 | 0.07 | 66 | 1008.5 |
| 20260504014604 | 57 | 242 | 2.0 | 4.0 | 0.00 | 0.07 | 0.07 | 66 | 1008.5 |
| 20260504014404 | 58 | 257 | 2.0 | 4.0 | 0.00 | 0.07 | 0.07 | 66 | 1008.6 |
| 20260504014203 | 58 | 260 | 2.0 | 4.0 | 0.00 | 0.07 | 0.07 | 65 | 1008.6 |
| 20260504014004 | 58 | 263 | 2.0 | 4.0 | 0.00 | 0.07 | 0.07 | 65 | 1008.7 |
| 20260504013803 | 59 | 249 | 3.0 | 5.0 | 0.00 | 0.07 | 0.07 | 64 | 1008.7 |
| 20260504013604 | 59 | 203 | 3.0 | 5.0 | 0.00 | 0.07 | 0.07 | 63 | 1008.7 |
| 20260504013403 | 60 | 199 | 2.0 | 5.0 | 0.00 | 0.07 | 0.07 | 62 | 1008.8 |
| 20260504013204 | 60 | 176 | 2.0 | 5.0 | 0.00 | 0.07 | 0.07 | 61 | 1008.8 |
| 20260504013004 | 60 | 135 | 3.0 | 5.0 | 0.00 | 0.07 | 0.07 | 61 | 1008.8 |
| 20260504012804 | 60 | 153 | 3.0 | 5.0 | 0.00 | 0.07 | 0.07 | 60 | 1008.8 |
| 20260504012603 | 60 | 167 | 2.0 | 4.0 | 0.00 | 0.07 | 0.07 | 60 | 1008.8 |
| 20260504012403 | 60 | 137 | 3.0 | 5.0 | 0.00 | 0.07 | 0.07 | 60 | 1008.8 |
| 20260504012204 | 61 | 140 | 3.0 | 5.0 | 0.00 | 0.07 | 0.07 | 60 | 1008.8 |
| 20260504012004 | 61 | 141 | 3.0 | 5.0 | 0.00 | 0.07 | 0.07 | 59 | 1008.8 |
| 20260504011803 | 61 | 141 | 2.0 | 5.0 | 0.00 | 0.07 | 0.07 | 60 | 1008.9 |
| 20260504011603 | 61 | 141 | 3.0 | 5.0 | 0.00 | 0.07 | 0.07 | 59 | 1008.9 |
| 20260504011404 | 61 | 154 | 2.0 | 4.0 | 0.00 | 0.07 | 0.07 | 59 | 1008.9 |
| 20260504011204 | 61 | 140 | 3.0 | 5.0 | 0.00 | 0.07 | 0.07 | 60 | 1009.0 |
| 20260504011007 | 62 | 149 | 2.0 | 7.0 | 0.00 | 0.07 | 0.07 | 60 | 1009.0 |
| 20260504010804 | 62 | 194 | 1.0 | 7.0 | 0.00 | 0.07 | 0.07 | 60 | 1009.0 |
| 20260504010603 | 62 | 193 | 2.0 | 7.0 | 0.00 | 0.07 | 0.07 | 60 | 1009.0 |
| 20260504010404 | 62 | 76 | 3.0 | 7.0 | 0.00 | 0.07 | 0.07 | 59 | 1009.1 |
| 20260504010204 | 62 | 94 | 3.0 | 7.0 | 0.00 | 0.07 | 0.07 | 59 | 1009.1 |
| 20260504010004 | 62 | 143 | 3.0 | 6.0 | 0.00 | 0.07 | 0.07 | 59 | 1009.2 |
| 20260504005804 | 62 | 148 | 2.0 | 4.0 | 0.00 | 0.07 | 0.07 | 59 | 1009.2 |
| 20260504005604 | 62 | 96 | 1.0 | 4.0 | 0.00 | 0.07 | 0.07 | 58 | 1009.2 |
| 20260504005404 | 62 | 116 | 2.0 | 5.0 | 0.00 | 0.07 | 0.07 | 58 | 1009.3 |
| 20260504005203 | 62 | 140 | 2.0 | 9.0 | 0.00 | 0.07 | 0.07 | 57 | 1009.2 |
| 20260504005004 | 63 | 192 | 1.0 | 9.0 | 0.00 | 0.07 | 0.07 | 57 | 1009.3 |
| 20260504004804 | 63 | 197 | 2.0 | 9.0 | 0.00 | 0.07 | 0.07 | 56 | 1009.3 |
| 20260504004603 | 63 | 200 | 3.0 | 9.0 | 0.00 | 0.07 | 0.07 | 56 | 1009.3 |
| 20260504004404 | 63 | 195 | 4.0 | 9.0 | 0.00 | 0.07 | 0.07 | 56 | 1009.3 |
| 20260504004204 | 64 | 195 | 4.0 | 9.0 | 0.00 | 0.07 | 0.07 | 55 | 1009.4 |
| 20260504004004 | 64 | 190 | 4.0 | 9.0 | 0.00 | 0.07 | 0.07 | 54 | 1009.4 |
| 20260504003804 | 64 | 193 | 4.0 | 9.0 | 0.00 | 0.07 | 0.07 | 54 | 1009.4 |
| 20260504003604 | 65 | 186 | 4.0 | 9.0 | 0.00 | 0.07 | 0.07 | 54 | 1009.4 |
| 20260504003404 | 65 | 195 | 3.0 | 9.0 | 0.00 | 0.07 | 0.07 | 54 | 1009.5 |
| 20260504003204 | 65 | 186 | 4.0 | 9.0 | 0.00 | 0.07 | 0.07 | 54 | 1009.5 |
| 20260504003004 | 65 | 184 | 3.0 | 9.0 | 0.00 | 0.07 | 0.07 | 54 | 1009.5 |
| 20260504002804 | 65 | 193 | 3.0 | 9.0 | 0.00 | 0.07 | 0.07 | 54 | 1009.6 |
| 20260504002604 | 65 | 180 | 4.0 | 9.0 | 0.00 | 0.07 | 0.07 | 54 | 1009.6 |
| 20260504002404 | 65 | 194 | 2.0 | 7.0 | 0.00 | 0.07 | 0.07 | 55 | 1009.6 |
| 20260504002204 | 65 | 196 | 4.0 | 9.0 | 0.00 | 0.07 | 0.07 | 55 | 1009.6 |
| 20260504002003 | 65 | 192 | 5.0 | 9.0 | 0.00 | 0.07 | 0.07 | 54 | 1009.7 |
| 20260504001804 | 65 | 187 | 3.0 | 9.0 | 0.00 | 0.07 | 0.07 | 55 | 1009.8 |
| 20260504001604 | 65 | 191 | 4.0 | 9.0 | 0.00 | 0.07 | 0.07 | 55 | 1009.8 |
| 20260504001404 | 64 | 202 | 4.0 | 9.0 | 0.00 | 0.07 | 0.07 | 55 | 1009.8 |
| 20260504001203 | 64 | 194 | 4.0 | 7.0 | 0.00 | 0.07 | 0.07 | 55 | 1009.9 |
| 20260504001004 | 64 | 215 | 3.0 | 7.0 | 0.00 | 0.07 | 0.07 | 56 | 1009.9 |
| 20260504000804 | 64 | 193 | 4.0 | 9.0 | 0.00 | 0.07 | 0.07 | 55 | 1009.9 |
| 20260504000604 | 64 | 204 | 4.0 | 9.0 | 0.00 | 0.07 | 0.07 | 55 | 1010.0 |
| 20260504000404 | 64 | 212 | 4.0 | 9.0 | 0.00 | 0.07 | 0.07 | 56 | 1009.9 |
| 20260504000204 | 64 | 194 | 4.0 | 10.0 | 0.00 | 0.07 | 0.07 | 56 | 1010.1 |
| 20260504000007 | 64 | 184 | 5.0 | 10.0 | 0.00 | 0.07 | 0.07 | 55 | 1010.1 |
| 20260503235803 | 64 | 215 | 5.0 | 10.0 | 0.00 | 0.07 | 0.07 | 56 | 1010.1 |
| 20260503235604 | 64 | 207 | 3.0 | 10.0 | 0.00 | 0.07 | 0.07 | 56 | 1010.2 |
| 20260503235404 | 64 | 215 | 5.0 | 11.0 | 0.00 | 0.07 | 0.07 | 57 | 1010.2 |
| 20260503235204 | 64 | 209 | 4.0 | 11.0 | 0.00 | 0.07 | 0.07 | 56 | 1010.2 |
| 20260503235004 | 64 | 198 | 4.0 | 11.0 | 0.00 | 0.07 | 0.07 | 57 | 1010.2 |
| 20260503234825 | 64 | 209 | 5.0 | 11.0 | 0.00 | 0.07 | 0.07 | 58 | 1010.2 |
| 20260503234625 | 64 | 215 | 7.0 | 11.0 | 0.00 | 0.07 | 0.07 | 56 | 1010.3 |
| 20260503234425 | 64 | 198 | 5.0 | 13.0 | 0.00 | 0.07 | 0.07 | 58 | 1010.3 |
| 20260503234204 | 64 | 210 | 5.0 | 15.0 | 0.00 | 0.07 | 0.07 | 59 | 1010.3 |
| 20260503234004 | 64 | 212 | 6.0 | 15.0 | 0.00 | 0.07 | 0.07 | 59 | 1010.4 |
| 20260503233804 | 64 | 206 | 6.0 | 15.0 | 0.00 | 0.07 | 0.07 | 59 | 1010.4 |
| 20260503233603 | 64 | 209 | 6.0 | 15.0 | 0.00 | 0.07 | 0.07 | 59 | 1010.4 |
| 20260503233404 | 64 | 207 | 6.0 | 15.0 | 0.00 | 0.07 | 0.07 | 59 | 1010.4 |
| 20260503233203 | 64 | 226 | 6.0 | 15.0 | 0.00 | 0.07 | 0.07 | 56 | 1010.4 |
| 20260503233003 | 63 | 240 | 6.0 | 16.0 | 0.00 | 0.07 | 0.07 | 56 | 1010.5 |
| 20260503232803 | 63 | 234 | 6.0 | 16.0 | 0.00 | 0.07 | 0.07 | 57 | 1010.6 |
| 20260503232604 | 63 | 234 | 6.0 | 16.0 | 0.00 | 0.07 | 0.07 | 57 | 1010.5 |
| 20260503232404 | 63 | 213 | 6.0 | 16.0 | 0.00 | 0.07 | 0.07 | 58 | 1010.6 |
| 20260503232204 | 63 | 231 | 8.0 | 16.0 | 0.00 | 0.07 | 0.07 | 58 | 1010.6 |
| 20260503232004 | 63 | 206 | 7.0 | 15.0 | 0.00 | 0.07 | 0.07 | 58 | 1010.7 |
| 20260503231804 | 63 | 240 | 6.0 | 12.0 | 0.00 | 0.07 | 0.07 | 58 | 1010.8 |
| 20260503231603 | 63 | 235 | 8.0 | 12.0 | 0.00 | 0.07 | 0.07 | 58 | 1010.8 |